WA7GL-10 Weather Reports


time (UTC)temp
C
wind
direction
speed
KPH
gust
KPH
rain 1hr
cm
rain 24hr
cm
rain mn
cm
humidity
%
barometer
mb
20260505200540 16 326 3.2 6.4 0.00 0.00 0.00 79 1016.6
20260505200045 16 321 1.6 6.4 0.00 0.00 0.00 77 1016.5
20260505195537 16 212 0.0 4.8 0.00 0.00 0.00 80 1016.6
20260505195037 15 327 0.0 4.8 0.00 0.00 0.00 79 1016.7
20260505194536 15 1 0.0 4.8 0.00 0.00 0.00 78 1016.7
20260505194036 15 250 0.0 4.8 0.00 0.00 0.00 80 1016.7
20260505193538 15 237 0.0 1.6 0.00 0.00 0.00 80 1016.7
20260505193037 15 298 0.0 1.6 0.00 0.00 0.00 79 1016.7
20260505192536 15 298 0.0 1.6 0.00 0.00 0.00 80 1016.8
20260505192033 15 318 0.0 3.2 0.00 0.00 0.00 80 1016.8
20260505191533 15 318 0.0 4.8 0.00 0.00 0.00 80 1016.8
20260505191032 15 333 1.6 4.8 0.00 0.00 0.00 80 1016.8
20260505190534 15 322 1.6 3.2 0.00 0.00 0.00 79 1016.7
20260505190031 15 10 0.0 4.8 0.00 0.00 0.00 81 1016.7
20260505185530 15 325 0.0 4.8 0.00 0.00 0.00 81 1016.7
20260505185033 15 325 0.0 6.4 0.00 0.00 0.00 80 1016.6
20260505184530 15 270 0.0 3.2 0.00 0.00 0.00 80 1016.6
20260505184031 15 329 0.0 3.2 0.00 0.00 0.00 80 1016.6
20260505183528 15 303 0.0 3.2 0.00 0.00 0.00 81 1016.6
20260505183033 15 205 1.6 3.2 0.00 0.00 0.00 81 1016.6
20260505182527 15 208 0.0 4.8 0.00 0.00 0.00 80 1016.5
20260505182026 15 357 1.6 4.8 0.00 0.00 0.00 80 1016.4
20260505181526 15 236 0.0 3.2 0.00 0.00 0.00 82 1016.5
20260505181026 14 136 0.0 6.4 0.00 0.00 0.00 82 1016.5
20260505180524 14 198 0.0 6.4 0.00 0.00 0.00 81 1016.5
20260505180024 14 228 0.0 4.8 0.00 0.00 0.00 81 1016.4
20260505175523 14 205 3.2 4.8 0.00 0.00 0.00 81 1016.4
20260505175025 14 217 0.0 8.0 0.00 0.00 0.00 81 1016.4
20260505174523 14 159 4.8 8.0 0.00 0.00 0.00 80 1016.4
20260505174022 14 210 0.0 3.2 0.00 0.00 0.00 81 1016.3
20260505173524 14 150 0.0 3.2 0.00 0.00 0.00 80 1016.4
20260505173022 14 205 0.0 3.2 0.00 0.00 0.00 81 1016.4
20260505172519 13 147 0.0 4.8 0.00 0.00 0.00 82 1016.4
20260505172019 13 158 1.6 4.8 0.00 0.00 0.00 81 1016.4
20260505171518 13 205 0.0 1.6 0.00 0.00 0.00 81 1016.3
20260505171020 13 203 0.0 8.0 0.00 0.00 0.00 81 1016.3
20260505170517 13 200 3.2 8.0 0.00 0.00 0.00 82 1016.3
20260505170021 13 201 0.0 6.4 0.00 0.00 0.00 82 1016.2
20260505165517 13 200 1.6 6.4 0.00 0.00 0.00 82 1016.1
20260505165019 13 144 3.2 6.4 0.00 0.00 0.00 82 1016.2
20260505164517 13 143 0.0 4.8 0.00 0.00 0.00 83 1016.2
20260505164017 13 143 1.6 4.8 0.00 0.00 0.00 83 1016.3
20260505163516 13 221 0.0 4.8 0.00 0.00 0.00 83 1016.3
20260505163018 13 177 0.0 4.8 0.00 0.00 0.00 84 1016.3
20260505162514 13 200 1.6 4.8 0.00 0.00 0.00 82 1016.3
20260505162013 13 190 0.0 4.8 0.00 0.00 0.00 84 1016.3
20260505161517 13 160 1.6 4.8 0.00 0.00 0.00 83 1016.2
20260505161015 13 164 1.6 4.8 0.00 0.00 0.00 83 1016.3
20260505160514 13 138 0.0 3.2 0.00 0.00 0.00 84 1016.3
20260505153006 12 155 0.0 4.8 0.00 0.00 0.00 86 1016.3
20260505152506 12 196 1.6 4.8 0.00 0.00 0.00 86 1016.3
20260505152008 12 204 0.0 3.2 0.00 0.00 0.00 86 1016.3
20260505151505 12 217 0.0 4.8 0.00 0.00 0.00 86 1016.3
20260505151004 12 155 0.0 4.8 0.00 0.00 0.00 86 1016.3
20260505150503 12 224 0.0 4.8 0.00 0.00 0.00 87 1016.2
20260505140557 11 211 0.0 1.6 0.00 0.00 0.00 88 1015.8
20260505140113 11 195 0.0 1.6 0.00 0.00 0.00 88 1015.8
20260505124549 11 158 0.0 3.2 0.00 0.00 0.00 86 1015.3
20260505124047 11 174 0.0 6.4 0.00 0.00 0.00 86 1015.2
20260505123547 11 162 1.6 6.4 0.00 0.00 0.00 87 1015.2
20260505123052 11 154 0.0 1.6 0.00 0.00 0.00 87 1015.2
20260505122547 11 132 0.0 1.6 0.00 0.00 0.00 87 1015.1
20260505122047 11 132 0.0 0.0 0.00 0.00 0.00 87 1015.1
20260505121547 11 132 0.0 0.0 0.00 0.00 0.00 87 1015.1
20260505121047 11 132 0.0 0.0 0.00 0.00 0.00 87 1015.2
20260505120546 11 132 0.0 0.0 0.00 0.00 0.00 87 1015.1
20260505120051 11 132 0.0 1.6 0.00 0.00 0.00 87 1015.1
20260505115545 11 131 0.0 0.0 0.00 0.00 0.00 87 1015.1
20260505115046 11 131 0.0 0.0 0.00 0.00 0.00 87 1015.1
20260505114556 11 131 0.0 0.0 0.00 0.00 0.00 87 1015.1
20260505114044 11 131 0.0 0.0 0.00 0.00 0.00 87 1015.2
20260505113547 11 131 0.0 0.0 0.00 0.00 0.00 86 1015.2
20260505113052 11 131 0.0 0.0 0.00 0.00 0.00 87 1015.2
20260505112544 11 131 0.0 1.6 0.00 0.00 0.00 86 1015.2
20260505112044 11 131 0.0 0.0 0.00 0.00 0.00 86 1015.2
20260505111544 11 131 0.0 0.0 0.00 0.00 0.00 86 1015.2
20260505111045 11 131 0.0 3.2 0.00 0.00 0.00 86 1015.2
20260505110544 11 131 0.0 3.2 0.00 0.00 0.00 86 1015.2
20260505102040 11 214 0.0 3.2 0.00 0.00 0.00 87 1014.9
20260505101549 11 204 0.0 4.8 0.00 0.00 0.00 87 1014.8
20260505101038 11 208 0.0 4.8 0.00 0.00 0.00 87 1014.8
20260505100538 11 192 0.0 4.8 0.00 0.00 0.00 87 1014.7
20260505100038 11 145 0.0 1.6 0.00 0.00 0.00 87 1014.7
20260505095537 12 142 0.0 0.0 0.00 0.00 0.00 87 1014.8
20260505095040 12 146 0.0 3.2 0.00 0.00 0.00 87 1014.8
20260505094539 12 146 0.0 4.8 0.00 0.00 0.00 87 1014.8
20260505094035 12 154 0.0 3.2 0.00 0.00 0.00 87 1014.8
20260505093535 12 149 1.6 3.2 0.00 0.00 0.00 87 1014.7
20260505093035 12 160 0.0 3.2 0.00 0.00 0.00 87 1014.7
20260505092537 12 158 0.0 4.8 0.00 0.00 0.00 87 1014.7
20260505092035 12 191 0.0 3.2 0.00 0.00 0.00 87 1014.7
20260505091536 12 199 0.0 4.8 0.00 0.00 0.00 87 1014.7
20260505091034 12 143 1.6 4.8 0.00 0.00 0.00 87 1014.7
20260505090533 12 172 0.0 1.6 0.00 0.00 0.00 87 1014.7
20260505090032 12 214 0.0 3.2 0.00 0.00 0.00 87 1014.6
20260505085532 12 211 0.0 3.2 0.00 0.00 0.00 87 1014.6
20260505085033 12 150 0.0 1.6 0.00 0.00 0.00 87 1014.6
20260505084531 12 151 0.0 0.0 0.00 0.00 0.00 87 1014.6
20260505084030 12 151 0.0 1.6 0.00 0.00 0.00 87 1014.6
20260505083530 12 161 0.0 4.8 0.00 0.00 0.00 87 1014.7
20260505083030 12 174 1.6 4.8 0.00 0.00 0.00 87 1014.7
20260505082533 12 181 1.6 4.8 0.00 0.00 0.00 87 1014.6
20260505082030 12 190 0.0 3.2 0.00 0.00 0.00 87 1014.7
20260505081530 12 148 0.0 3.2 0.00 0.00 0.00 87 1014.6
20260505081030 12 177 0.0 1.6 0.00 0.00 0.00 87 1014.7
20260505080529 12 214 0.0 3.2 0.00 0.00 0.00 87 1014.7
20260505080129 11 216 0.0 3.2 0.00 0.00 0.00 87 1014.7
20260505075527 11 145 0.0 3.2 0.00 0.00 0.00 87 1014.7
20260505075027 11 152 0.0 3.2 0.00 0.00 0.00 87 1014.7
20260505074529 11 155 0.0 1.6 0.00 0.00 0.00 87 1014.6
20260505074026 11 207 0.0 1.6 0.00 0.00 0.00 87 1014.6
20260505073530 11 151 0.0 3.2 0.00 0.00 0.00 87 1014.6
20260505073026 11 177 0.0 3.2 0.00 0.00 0.00 87 1014.6
20260505072525 11 150 0.0 6.4 0.00 0.00 0.00 88 1014.5
20260505072024 11 169 0.0 4.8 0.00 0.00 0.00 88 1014.5
20260505071530 11 198 1.6 4.8 0.00 0.00 0.00 88 1014.5
20260505071024 11 200 1.6 3.2 0.00 0.00 0.00 88 1014.5
20260505070524 11 124 1.6 3.2 0.00 0.00 0.00 89 1014.5
20260505070026 11 149 0.0 3.2 0.00 0.00 0.00 89 1014.5
20260505065523 11 158 1.6 3.2 0.00 0.00 0.00 89 1014.5
20260505065019 11 146 0.0 3.2 0.00 0.00 0.00 89 1014.5
20260505064519 11 162 0.0 3.2 0.00 0.00 0.00 89 1014.5
20260505064019 11 146 0.0 4.8 0.00 0.00 0.00 89 1014.4
20260505063519 11 149 0.0 4.8 0.00 0.00 0.00 89 1014.4
20260505063018 11 147 0.0 4.8 0.00 0.00 0.00 89 1014.4
20260505062518 11 136 1.6 4.8 0.00 0.00 0.00 90 1014.4
20260505062018 11 147 0.0 3.2 0.00 0.00 0.00 90 1014.4
20260505061519 11 158 1.6 3.2 0.00 0.00 0.00 90 1014.5
20260505061023 10 147 0.0 3.2 0.00 0.00 0.00 91 1014.5
20260505060518 10 150 0.0 3.2 0.00 0.00 0.00 91 1014.4
20260505060034 10 200 0.0 1.6 0.00 0.00 0.00 91 1014.4
20260505055520 10 153 0.0 1.6 0.00 0.00 0.00 91 1014.3
20260505055015 10 156 0.0 0.0 0.00 0.00 0.00 91 1014.3
20260505054517 10 156 0.0 0.0 0.00 0.00 0.00 91 1014.2
20260505054016 10 156 0.0 0.0 0.00 0.00 0.00 91 1014.3
20260505053515 10 157 0.0 0.0 0.00 0.00 0.00 90 1014.2
20260505053016 10 157 0.0 0.0 0.00 0.00 0.00 89 1014.2
20260505052515 11 157 0.0 0.0 0.00 0.00 0.00 88 1014.2
20260505052015 11 157 0.0 0.0 0.00 0.00 0.00 88 1014.2
20260505051521 11 157 0.0 0.0 0.00 0.00 0.00 87 1014.1
20260505051015 11 157 0.0 0.0 0.00 0.00 0.00 87 1014.1
20260505050515 11 157 0.0 0.0 0.00 0.00 0.00 86 1014.0
20260505041518 12 205 0.0 0.0 0.00 0.00 0.00 84 1013.3
20260505041015 13 205 0.0 0.0 0.00 0.00 0.00 84 1013.3
20260505040511 13 205 0.0 0.0 0.00 0.00 0.00 83 1013.2
20260505040012 13 205 0.0 0.0 0.00 0.00 0.00 83 1013.2
20260505035511 13 147 0.0 0.0 0.00 0.00 0.00 82 1013.1
20260505035011 13 147 0.0 1.6 0.00 0.00 0.00 82 1013.0
20260505034511 13 147 0.0 1.6 0.00 0.00 0.00 81 1012.8
20260505034010 14 198 0.0 3.2 0.00 0.00 0.00 80 1012.8
20260505033512 15 165 0.0 3.2 0.00 0.00 0.00 80 1012.7
20260505033013 15 153 0.0 1.6 0.00 0.00 0.00 79 1012.6
20260505032510 15 168 0.0 1.6 0.00 0.00 0.00 79 1012.6
20260505032009 15 141 0.0 3.2 0.00 0.00 0.00 78 1012.6
20260505031509 15 141 0.0 4.8 0.00 0.00 0.00 78 1012.4
20260505031009 15 141 0.0 4.8 0.00 0.00 0.00 77 1012.3
20260505030509 16 148 0.0 4.8 0.00 0.00 0.00 77 1012.2
20260505030008 16 153 1.6 4.8 0.00 0.00 0.00 76 1012.1
20260505025512 16 147 0.0 4.8 0.00 0.00 0.00 76 1012.0
20260505025006 16 127 0.0 6.4 0.00 0.00 0.00 76 1011.9
20260505024510 16 13 0.0 6.4 0.00 0.00 0.00 75 1011.8
20260505024007 16 146 0.0 3.2 0.00 0.00 0.00 76 1011.8
20260505023506 16 155 0.0 3.2 0.00 0.00 0.00 75 1011.7
20260505023017 17 209 0.0 4.8 0.00 0.00 0.00 74 1011.7
20260505022505 17 131 1.6 6.4 0.00 0.00 0.00 74 1011.7
20260505022008 17 223 0.0 6.4 0.00 0.00 0.00 74 1011.7
20260505021510 17 158 0.0 9.7 0.00 0.00 0.00 73 1011.6
20260505021006 17 179 1.6 12.9 0.00 0.00 0.00 73 1011.5
20260505020506 17 158 3.2 14.5 0.00 0.00 0.00 73 1011.4
20260505020006 17 156 4.8 14.5 0.00 0.00 0.00 73 1011.4
20260505015503 17 195 3.2 12.9 0.00 0.00 0.00 72 1011.4
20260505015004 17 182 8.0 17.7 0.00 0.00 0.00 72 1011.4
20260505014511 18 198 8.0 17.7 0.00 0.00 0.00 72 1011.4
20260505014006 18 184 8.0 20.9 0.00 0.00 0.00 72 1011.4
20260505013502 18 196 9.7 24.1 0.00 0.00 0.00 70 1011.5
20260505013003 18 172 9.7 19.3 0.00 0.00 0.00 70 1011.4
20260505012503 18 176 9.7 17.7 0.00 0.00 0.00 71 1011.5
20260505012002 19 170 8.0 17.7 0.00 0.00 0.00 69 1011.5
20260505011501 19 179 9.7 16.1 0.00 0.00 0.00 69 1011.6
20260505011001 19 158 6.4 17.7 0.00 0.00 0.00 70 1011.5
20260505010503 19 143 9.7 20.9 0.00 0.00 0.00 70 1011.5
20260505010115 19 174 8.0 20.9 0.00 0.00 0.00 70 1011.5
20260505005600 20 150 11.3 20.9 0.00 0.00 0.00 70 1011.5
20260505005100 20 140 9.7 19.3 0.00 0.00 0.00 68 1011.5
20260505004600 20 145 11.3 20.9 0.00 0.00 0.00 69 1011.4
20260505004059 20 172 6.4 20.9 0.00 0.00 0.00 69 1011.4
20260505003603 20 144 9.7 22.5 0.00 0.00 0.00 70 1011.4
20260505003105 20 176 6.4 22.5 0.00 0.00 0.00 68 1011.5
20260505002601 20 193 12.9 22.5 0.00 0.00 0.00 68 1011.4
20260505002059 21 155 8.0 19.3 0.00 0.00 0.00 67 1011.4
20260505001559 21 188 9.7 16.1 0.00 0.00 0.00 68 1011.4
20260505001058 21 175 9.7 17.7 0.00 0.00 0.00 65 1011.4
20260505000559 21 163 8.0 17.7 0.00 0.00 0.00 65 1011.5
20260505000107 22 177 3.2 12.9 0.00 0.00 0.00 66 1011.5
20260504235557 22 120 1.6 6.4 0.00 0.00 0.00 67 1011.4
20260504235100 22 142 0.0 6.4 0.00 0.00 0.00 69 1011.4
20260504234557 22 15 0.0 6.4 0.00 0.00 0.00 66 1011.5
20260504234100 22 322 1.6 6.4 0.00 0.00 0.00 68 1011.4
20260504233556 21 145 3.2 9.7 0.00 0.00 0.00 69 1011.4
20260504233105 21 207 3.2 9.7 0.00 0.00 0.00 67 1011.5
20260504232556 21 167 3.2 8.0 0.00 0.00 0.00 67 1011.5
20260504232055 21 205 0.0 8.0 0.00 0.00 0.00 68 1011.6
20260504231556 21 325 3.2 8.0 0.00 0.00 0.00 68 1011.6
20260504231055 21 359 0.0 4.8 0.00 0.00 0.00 68 1011.7
20260504230559 21 319 0.0 8.0 0.00 0.00 0.00 67 1011.8
20260504225555 22 340 3.2 8.0 0.00 0.00 0.00 70 1011.9
20260504225052 21 320 1.6 8.0 0.00 0.00 0.00 69 1011.9
20260504224553 22 326 3.2 6.4 0.00 0.00 0.00 68 1012.0
20260504224051 21 215 0.0 8.0 0.00 0.00 0.00 70 1012.0
20260504223551 21 321 1.6 8.0 0.00 0.00 0.00 68 1012.1
20260504223058 21 330 1.6 9.7 0.00 0.00 0.00 68 1012.2
20260504222549 21 218 0.0 11.3 0.00 0.00 0.00 71 1012.3
20260504222049 21 203 4.8 11.3 0.00 0.00 0.00 70 1012.4
20260504221550 21 126 3.2 11.3 0.00 0.00 0.00 71 1012.5
20260504221049 21 200 6.4 14.5 0.00 0.00 0.00 69 1012.5
20260504220549 21 193 8.0 12.9 0.00 0.00 0.00 69 1012.6
20260504220049 21 190 1.6 11.3 0.00 0.00 0.00 69 1012.7
20260504215547 21 188 1.6 17.7 0.00 0.00 0.00 74 1012.7
20260504215046 21 193 4.8 17.7 0.00 0.00 0.00 71 1012.7
20260504214550 21 222 3.2 9.7 0.00 0.00 0.00 69 1012.8
20260504214044 20 174 1.6 9.7 0.00 0.00 0.00 73 1012.8
20260504213543 20 227 1.6 9.7 0.00 0.00 0.00 72 1012.8
20260504213044 20 233 3.2 12.9 0.00 0.00 0.00 74 1012.9
20260504212544 20 194 6.4 14.5 0.00 0.00 0.00 72 1012.9
20260504212044 20 176 6.4 14.5 0.00 0.00 0.00 70 1012.8
20260504211542 20 210 4.8 14.5 0.00 0.00 0.00 71 1012.9
20260504211045 20 214 6.4 14.5 0.00 0.00 0.00 71 1013.0
20260504210542 20 241 4.8 9.7 0.00 0.00 0.00 70 1013.0
20260504210040 20 310 1.6 9.7 0.00 0.00 0.00 72 1013.1
20260504205540 20 330 0.0 14.5 0.00 0.00 0.00 76 1013.0
20260504205039 20 290 3.2 9.7 0.00 0.00 0.00 72 1013.0
20260504204540 20 307 1.6 9.7 0.00 0.00 0.00 72 1013.1
20260504204039 20 240 4.8 11.3 0.00 0.00 0.00 71 1013.2
20260504203539 20 218 3.2 11.3 0.00 0.00 0.00 73 1013.2
20260504203040 20 155 4.8 9.7 0.00 0.00 0.00 71 1013.2
20260504202536 20 339 0.0 4.8 0.00 0.00 0.00 75 1013.3
20260504202036 19 331 0.0 9.7 0.00 0.00 0.00 74 1013.3
20260504201536 19 191 1.6 12.9 0.00 0.00 0.00 74 1013.3
20260504201037 18 233 1.6 8.0 0.00 0.00 0.00 73 1013.4